EN

Hourly Weather Bellshill

Today, 22 October, Thursday

Time Temperature Precipitation Wind Pressure Humidity
00:00 +10°C° 0 mm 1 mps 738 mmHg 92%
01:00 +10°C° 0.3 mm 1 mps 738 mmHg 93%
02:00 +10°C° 0.3 mm 1 mps 738 mmHg 94%
03:00 +10°C° 0.3 mm 1 mps 739 mmHg 94%
04:00 +9°C° 0.1 mm 2 mps 739 mmHg 94%
05:00 +9°C° 0.1 mm 2 mps 739 mmHg 94%
06:00 +9°C° 0.1 mm 2 mps 740 mmHg 94%
07:00 +9°C° 0 mm 2 mps 741 mmHg 92%
08:00 +10°C° 0 mm 2 mps 741 mmHg 91%
09:00 +10°C° 0 mm 2 mps 742 mmHg 89%
10:00 +10°C° 0 mm 2 mps 743 mmHg 87%
11:00 +12°C° 0 mm 2 mps 743 mmHg 84%
12:00 +12°C° 0 mm 2 mps 744 mmHg 81%
13:00 +11°C° 0.1 mm 3 mps 744 mmHg 83%
14:00 +10°C° 0.1 mm 3 mps 745 mmHg 84%
15:00 +10°C° 0.1 mm 4 mps 745 mmHg 85%
16:00 +9°C° 0 mm 3 mps 745 mmHg 86%
17:00 +8°C° 0 mm 3 mps 745 mmHg 87%
18:00 +7°C° 0 mm 3 mps 745 mmHg 88%
19:00 +7°C° 0 mm 3 mps 746 mmHg 86%
20:00 +5°C° 0 mm 3 mps 746 mmHg 85%
21:00 +5°C° 0 mm 3 mps 746 mmHg 83%
22:00 +5°C° 0 mm 3 mps 746 mmHg 82%
23:00 +5°C° 0 mm 3 mps 745 mmHg 82%

Tomorrow, 23 October, Friday

Time Temperature Precipitation Wind Pressure Humidity
00:00 +5°C° 0 mm 3 mps 745 mmHg 81%
01:00 +5°C° 0 mm 3 mps 744 mmHg 81%
02:00 +6°C° 0 mm 4 mps 744 mmHg 82%
03:00 +6°C° 0 mm 4 mps 743 mmHg 82%
04:00 +6°C° 0.6 mm 4 mps 743 mmHg 86%
05:00 +6°C° 0.6 mm 4 mps 743 mmHg 89%
06:00 +6°C° 0.6 mm 4 mps 743 mmHg 92%
07:00 +6°C° 0.4 mm 4 mps 743 mmHg 92%
08:00 +8°C° 0.4 mm 3 mps 743 mmHg 92%
09:00 +8°C° 0.4 mm 3 mps 743 mmHg 91%
10:00 +7°C° 0.1 mm 4 mps 743 mmHg 86%
11:00 +8°C° 0.1 mm 4 mps 743 mmHg 82%
12:00 +8°C° 0.1 mm 5 mps 743 mmHg 77%
13:00 +8°C° 0.2 mm 5 mps 744 mmHg 77%
14:00 +8°C° 0.2 mm 5 mps 744 mmHg 78%
15:00 +7°C° 0.2 mm 5 mps 744 mmHg 78%
16:00 +6°C° 0 mm 4 mps 744 mmHg 81%
17:00 +5°C° 0 mm 4 mps 744 mmHg 83%
18:00 +4°C° 0 mm 3 mps 744 mmHg 85%
19:00 +4°C° 0 mm 3 mps 744 mmHg 86%
20:00 +4°C° 0 mm 3 mps 745 mmHg 87%
21:00 +4°C° 0 mm 3 mps 745 mmHg 87%
22:00 +4°C° 0 mm 3 mps 744 mmHg 87%
23:00 +4°C° 0 mm 3 mps 744 mmHg 87%

Day after tomorrow, 24 October, Saturday

Time Temperature Precipitation Wind Pressure Humidity
00:00 +4°C° 0 mm 3 mps 743 mmHg 86%
01:00 +5°C° 0.5 mm 4 mps 742 mmHg 88%
02:00 +5°C° 0.5 mm 5 mps 741 mmHg 89%
03:00 +5°C° 0.5 mm 6 mps 739 mmHg 91%
04:00 +6°C° 1.1 mm 7 mps 738 mmHg 90%
05:00 +7°C° 1.1 mm 8 mps 737 mmHg 88%
06:00 +8°C° 1.1 mm 9 mps 735 mmHg 87%
07:00 +8°C° 0.9 mm 9 mps 735 mmHg 88%
08:00 +9°C° 0.9 mm 10 mps 734 mmHg 89%
09:00 +9°C° 0.9 mm 10 mps 734 mmHg 90%
10:00 +10°C° 2.7 mm 8 mps 733 mmHg 91%
11:00 +9°C° 2.7 mm 7 mps 733 mmHg 92%
12:00 +8°C° 2.7 mm 6 mps 732 mmHg 93%
13:00 +8°C° 1.5 mm 6 mps 732 mmHg 92%
14:00 +8°C° 1.5 mm 6 mps 732 mmHg 90%
15:00 +8°C° 1.5 mm 6 mps 732 mmHg 89%
16:00 +7°C° 0.3 mm 5 mps 732 mmHg 88%
17:00 +7°C° 0.3 mm 5 mps 732 mmHg 87%
18:00 +7°C° 0.3 mm 5 mps 732 mmHg 87%
19:00 +6°C° 0 mm 5 mps 732 mmHg 86%
20:00 +6°C° 0 mm 5 mps 732 mmHg 85%
21:00 +6°C° 0 mm 5 mps 732 mmHg 84%
22:00 +6°C° 0 mm 5 mps 732 mmHg 85%
23:00 +6°C° 0 mm 5 mps 732 mmHg 85%

, 25 October, Sunday

Time Temperature Precipitation Wind Pressure Humidity
00:00 +5°C° 0 mm 6 mps 732 mmHg 85%
01:00 +5°C° 0.1 mm 6 mps 731 mmHg 85%
02:00 +5°C° 0.1 mm 6 mps 731 mmHg 85%
03:00 +5°C° 0.1 mm 6 mps 731 mmHg 85%
04:00 +5°C° 0.1 mm 7 mps 731 mmHg 85%
05:00 +5°C° 0.1 mm 7 mps 731 mmHg 84%
06:00 +5°C° 0.1 mm 8 mps 731 mmHg 83%
07:00 +5°C° 0 mm 8 mps 732 mmHg 82%
08:00 +6°C° 0 mm 8 mps 732 mmHg 81%
09:00 +6°C° 0 mm 8 mps 732 mmHg 80%
10:00 +6°C° 0 mm 9 mps 732 mmHg 79%
11:00 +7°C° 0 mm 9 mps 733 mmHg 77%
12:00 +7°C° 0 mm 9 mps 733 mmHg 75%
13:00 +7°C° 0.3 mm 9 mps 734 mmHg 77%
14:00 +7°C° 0.3 mm 8 mps 734 mmHg 78%
15:00 +8°C° 0.3 mm 7 mps 734 mmHg 80%
16:00 +7°C° 0.1 mm 6 mps 735 mmHg 82%
17:00 +7°C° 0.1 mm 5 mps 735 mmHg 85%
18:00 +6°C° 0.1 mm 4 mps 736 mmHg 87%
19:00 +6°C° 0 mm 4 mps 737 mmHg 87%
20:00 +6°C° 0 mm 4 mps 737 mmHg 86%
21:00 +6°C° 0 mm 4 mps 738 mmHg 86%
22:00 +6°C° 0 mm 4 mps 738 mmHg 87%
23:00 +6°C° 0 mm 4 mps 739 mmHg 87%

25 October, Sunday

Time Temperature Precipitation Wind Pressure Humidity
00:00 +5°C° 0 mm 6 mps 732 mmHg 85%
01:00 +5°C° 0.1 mm 6 mps 731 mmHg 85%
02:00 +5°C° 0.1 mm 6 mps 731 mmHg 85%
03:00 +5°C° 0.1 mm 6 mps 731 mmHg 85%
04:00 +5°C° 0.1 mm 7 mps 731 mmHg 85%
05:00 +5°C° 0.1 mm 7 mps 731 mmHg 84%
06:00 +5°C° 0.1 mm 8 mps 731 mmHg 83%
07:00 +5°C° 0 mm 8 mps 732 mmHg 82%
08:00 +6°C° 0 mm 8 mps 732 mmHg 81%
09:00 +6°C° 0 mm 8 mps 732 mmHg 80%
10:00 +6°C° 0 mm 9 mps 732 mmHg 79%
11:00 +7°C° 0 mm 9 mps 733 mmHg 77%
12:00 +7°C° 0 mm 9 mps 733 mmHg 75%
13:00 +7°C° 0.3 mm 9 mps 734 mmHg 77%
14:00 +7°C° 0.3 mm 8 mps 734 mmHg 78%
15:00 +8°C° 0.3 mm 7 mps 734 mmHg 80%
16:00 +7°C° 0.1 mm 6 mps 735 mmHg 82%
17:00 +7°C° 0.1 mm 5 mps 735 mmHg 85%
18:00 +6°C° 0.1 mm 4 mps 736 mmHg 87%
19:00 +6°C° 0 mm 4 mps 737 mmHg 87%
20:00 +6°C° 0 mm 4 mps 737 mmHg 86%
21:00 +6°C° 0 mm 4 mps 738 mmHg 86%
22:00 +6°C° 0 mm 4 mps 738 mmHg 87%
23:00 +6°C° 0 mm 4 mps 739 mmHg 87%

26 October, Monday

Time Temperature Precipitation Wind Pressure Humidity
00:00 +6°C° 0 mm 4 mps 739 mmHg 88%
01:00 +5°C° 0 mm 4 mps 739 mmHg 90%
02:00 +5°C° 0 mm 4 mps 740 mmHg 91%
03:00 +5°C° 0 mm 3 mps 740 mmHg 93%
04:00 +5°C° 0 mm 3 mps 741 mmHg 93%
05:00 +5°C° 0 mm 3 mps 741 mmHg 93%
06:00 +4°C° 0 mm 3 mps 742 mmHg 93%
07:00 +5°C° 0 mm 3 mps 742 mmHg 91%
08:00 +5°C° 0 mm 3 mps 743 mmHg 90%
09:00 +7°C° 0 mm 3 mps 743 mmHg 88%
10:00 +8°C° 0.2 mm 3 mps 744 mmHg 84%
11:00 +8°C° 0.2 mm 4 mps 744 mmHg 80%
12:00 +8°C° 0.2 mm 4 mps 744 mmHg 76%
13:00 +8°C° 0.1 mm 4 mps 744 mmHg 76%
14:00 +8°C° 0.1 mm 4 mps 744 mmHg 75%
15:00 +8°C° 0.1 mm 4 mps 744 mmHg 75%
16:00 +8°C° 0.1 mm 3 mps 745 mmHg 78%
17:00 +7°C° 0.1 mm 3 mps 745 mmHg 82%
18:00 +6°C° 0.1 mm 2 mps 745 mmHg 86%
19:00 +5°C° 0 mm 2 mps 745 mmHg 87%
20:00 +5°C° 0 mm 2 mps 745 mmHg 87%
21:00 +5°C° 0 mm 2 mps 745 mmHg 88%
22:00 +5°C° 0 mm 2 mps 745 mmHg 88%
23:00 +5°C° 0 mm 2 mps 745 mmHg 89%

27 October, Tuesday

Time Temperature Precipitation Wind Pressure Humidity
00:00 +5°C° 0 mm 2 mps 745 mmHg 89%
01:00 +5°C° 0 mm 2 mps 744 mmHg 89%
02:00 +4°C° 0 mm 3 mps 743 mmHg 88%
03:00 +5°C° 0 mm 3 mps 743 mmHg 88%
04:00 +5°C° 0 mm 3 mps 742 mmHg 88%
05:00 +6°C° 0 mm 4 mps 741 mmHg 89%
06:00 +6°C° 0 mm 4 mps 741 mmHg 89%
07:00 +7°C° 0.4 mm 5 mps 740 mmHg 89%
08:00 +7°C° 0.4 mm 5 mps 739 mmHg 89%
09:00 +7°C° 0.4 mm 5 mps 738 mmHg 90%
10:00 +7°C° 0.4 mm 5 mps 738 mmHg 89%
11:00 +8°C° 0.4 mm 5 mps 737 mmHg 89%
12:00 +8°C° 0.4 mm 5 mps 736 mmHg 89%
13:00 +8°C° 1.2 mm 5 mps 736 mmHg 90%
14:00 +8°C° 1.2 mm 4 mps 736 mmHg 91%
15:00 +10°C° 1.2 mm 4 mps 735 mmHg 93%
16:00 +8°C° 0.1 mm 4 mps 735 mmHg 91%
17:00 +8°C° 0.1 mm 4 mps 736 mmHg 90%
18:00 +7°C° 0.1 mm 4 mps 736 mmHg 89%
19:00 +6°C° 0.1 mm 4 mps 736 mmHg 89%
20:00 +6°C° 0.1 mm 4 mps 737 mmHg 89%
21:00 +5°C° 0.1 mm 3 mps 737 mmHg 89%
22:00 +5°C° 0 mm 4 mps 737 mmHg 89%
23:00 +5°C° 0 mm 4 mps 737 mmHg 88%
Show more